User: anonymous   Login
Location: Charleston
(38.3500°N, 81.6330°W)
Time: 17:57:48
(UTC-04:00)
Language:

Cosmos 1812 Rocket - Orbit

View from above orbital plane
View from above orbital plane
View from above satellite
View from above satellite

Ground track
Ground track

The orbit data is extracted from the following two-line orbital elements,

1 17296U 87003B   15215.71700656  .00000210  00000-0  22848-4 0  9990
2 17296 082.5318 303.9301 0018076 317.0896 042.8907 14.83000860541818
Epoch (UTC): 03 August 2015 17:12:29
Eccentricity: 0.0018076
inclination: 82.5318°
perigee height: 607 km
apogee height: 632 km
right ascension of ascending node: 303.9301°
argument of perigee: 317.0896°
revolutions per day: 14.83000860
mean anomaly at epoch: 42.8907°
orbit number at epoch: 54181

The dashed part of the orbit path shows where the satellite is in the earth's shadow,  

DLR